Regional Weather Roundup
Issued by NWS Grand Forks, ND

Home | Current Version | Previous Version | Text Only | Print | Product List | Glossary Off
Versions: 1 2 3 4 5 6 7 8 9 10 11 12 13 14 15 16 17 18 19 20 21 22 23 24 25 26 27 28 29 30 31 32 33 34 35 36 37 38 39 40 41 42 43 44 45 46 47 48 49 50

000
ASUS43 KFGF 280631
RWRFGF
PRAIRIE TO PINES  WEATHER ROUNDUP
NATIONAL WEATHER SERVICE EASTERN NORTH DAKOTA/GRAND FORKS ND
1200 AM CST FRI NOV 28 2014

 **SATELLITE DATA USED TO AUGMENT SKY COVER AT AUTOMATED STATIONS**
 *****  WEATHER ACROSS EASTERN NORTH DAKOTA  *****

CITY           SKY/WX    TMP DP  RH WIND       PRES   REMARKS
GRAND FORKS    MIX PCPN   9   4  80 SE14      30.10F WCI  -7
6HR MIN TEMP:   5; 6HR MAX TEMP:   9; 6HR PCP:  0.02;

GRAND FRKS AFB FRZ DRZL   9   5  85 S10       30.08F WCI  -6
GRAND FRKS NWS   N/A      9 N/A N/A S6          N/A  WCI  -1
DEVILS LAKE    CLOUDY     9  -2  61 SE13      29.97F WCI  -7
6HR MIN TEMP:   7; 6HR MAX TEMP:   9;

FARGO          LGT SNOW  11   6  81 SE14      30.06F WCI  -5
WAHPETON ARPT  CLOUDY    10   5  79 SE15      30.08F WCI  -6
$$

 ***** WEATHER ACROSS CENTRAL AND WESTERN NORTH DAKOTA  *****

CITY           SKY/WX    TMP DP  RH WIND       PRES   REMARKS
BISMARCK       PTCLDY    10   6  84 E9        29.89F WCI  -3
6HR MIN TEMP:  10; 6HR MAX TEMP:  12; 6HR PCP: TRACE;

MINOT          CLOUDY    10   5  80 E10       29.90F WCI  -4
6HR MIN TEMP:  10; 6HR MAX TEMP:  12; 6HR PCP:  0.01;

JAMESTOWN      CLOUDY     6   2  83 SE10      29.97F WCI  -9
6HR MIN TEMP:   5; 6HR MAX TEMP:   6; 6HR PCP:  0.04;

MINOT AFB      CLOUDY    10   7  85 E13       29.90F WCI  -5
GARRISON         N/A     11   7  84 E10       29.85F WCI  -3
WILLISTON      CLOUDY    16  12  84 E5        29.81F WCI   9
6HR MIN TEMP:  13; 6HR MAX TEMP:  19;

DICKINSON      CLEAR     18  15  88 CALM      29.73S
6HR MIN TEMP:  18; 6HR MAX TEMP:  25;

HETTINGER      PTCLDY    21  18  88 CALM      29.76F
6HR MIN TEMP:  19; 6HR MAX TEMP:  24;

$$

 *****  OTHER AIRPORT OBSERVATIONS IN OUR AREA  *****

CITY           SKY/WX    TMP DP  RH WIND       PRES   REMARKS
WALHALLA         N/A      7   3  85 SE7       30.09F WCI  -5
GRAFTON AIRPOR LGT SNOW   9   5  85 SE7       30.11F WCI  -3
VALLEY CITY AR CLOUDY     7   5  92 SE13      30.01F WCI  -9
CANDO          CLOUDY     9   5  85 SE12      29.99F WCI  -6
CAVALIER APRT  MOCLDY     7   3  85 SE7       30.10F WCI  -5
GWINNER        CLOUDY    10   5  79 SE15      30.02F WCI  -6
ROLLA          CLOUDY     5   3  92 SE9       29.96F WCI  -9
 ***** THE ABOVE OBSERVATIONS ARE NON NWS ARE NOT QUALITY
       CONTROLLED AND MAY MIS-REPORT RAIN FOR SNOW...
$$

  *****  WEATHER ACROSS NORTHERN MINNESOTA  *****

CITY           SKY/WX    TMP DP  RH WIND       PRES   REMARKS
FLAG ISLAND    PTCLDY     5  -2  72 S8        30.14F WCI  -8
WARROAD        CLOUDY     7   0  72 S3        30.13F
ROSEAU         CLOUDY     9   0  66 S3        30.14F
HALLOCK        FLURRIES   9   3  78 SE9       30.11F WCI  -5
THF RVR FALLS  CLOUDY     9   5  85 SE7       30.10F WCI  -3
6HR MIN TEMP:   3; 6HR MAX TEMP:   9;

BAUDETTE       CLOUDY     4  -3  73 S3        30.15F
6HR MIN TEMP:   0; 6HR MAX TEMP:   4;

WASKISH        CLOUDY     7   1  78 CALM      30.15F
CROOKSTON      CLOUDY    10   7  85 SE13      30.10F WCI  -5
GREENBUSH NDAW   N/A      7   1  78 SE8         N/A  WCI  -6
$$
  *****  WEATHER ACROSS CENTRAL AND WEST MINNESOTA  *****

CITY           SKY/WX    TMP DP  RH WIND       PRES   REMARKS
FOSSTON        FLURRIES   7   1  78 SE7       30.09F WCI  -5
BEMIDJI        FLURRIES   7   0  72 S9        30.10F WCI  -7
PARK RAPIDS    FLURRIES   5   1  83 SE9       30.13S WCI  -9
6HR MIN TEMP:   5; 6HR MAX TEMP:   6; 6HR PCP: TRACE;

ELBOW LAKE     CLOUDY     8   4  84 SE14      30.07F WCI  -9
WADENA         LGT SNOW   5   1  85 SE10      30.12S WCI -10
DETROIT LAKES  FLURRIES   9   5  85 SE15      30.09F WCI  -8
MOORHEAD       MIX PCPN  10  10 100 SE10        N/A  WCI  -3
FERGUS FALLS   LGT SNOW   9   3  78 SE13      30.12S WCI  -7
MORRIS MN      CLOUDY     9   3  78 SE22      30.06F HAZE    WCI -11
STAPLES        LGT SNOW   3   1  92 SE7       30.13F WCI  -9
$$
  *****  WEATHER ELSEWHERE ACROSS MINNESOTA  *****

CITY           SKY/WX    TMP DP  RH WIND       PRES   REMARKS
DULUTH         CLOUDY     6  -4  63 S7        30.18F WCI  -6
6HR MIN TEMP:   1; 6HR MAX TEMP:   7;

INTRNTL FALLS  CLOUDY     2  -6  69 CALM      30.17F
6HR MIN TEMP:  -5; 6HR MAX TEMP:   3;

ELY            CLOUDY     1  -4  78 SE3       30.17F
CLOQUET        CLOUDY     7  -4  61 S6        30.19F WCI  -3
WHEATON        CLOUDY     7   3  85 SE18      30.09F WCI -12
BRAINERD       LGT SNOW   5   2  87 S7        30.18F VSB 1   WCI  -7
6HR MIN TEMP:   2; 6HR MAX TEMP:   6; 6HR PCP: TRACE;

HIBBING        CLOUDY     6  -4  63 VRB3      30.18S
6HR MIN TEMP:  -3; 6HR MAX TEMP:   6;

ALEXANDRIA     LGT SNOW   6   1  80 SE14      30.09F WCI -11
6HR MIN TEMP:   5; 6HR MAX TEMP:   6; 6HR PCP:  0.01;

SAINT CLOUD    LGT SNOW   7   1  76 SE10      30.22F WCI  -8
6HR MIN TEMP:   7; 6HR MAX TEMP:   8; 6HR PCP:  0.05;

MINNEAPOLIS    LGT SNOW   6   2  83 SE8       30.27F VSB 1   WCI  -7
6HR MIN TEMP:   5; 6HR MAX TEMP:   7; 6HR PCP:  0.02;

$$

  *****  WEATHER ACROSS SOUTH DAKOTA  *****

CITY           SKY/WX    TMP DP  RH WIND       PRES   REMARKS
SIOUX FALLS    CLOUDY    18  11  74 S16       30.00F WCI   3
6HR MIN TEMP:  12; 6HR MAX TEMP:  18;

BROOKINGS      NOT AVBL
WATERTOWN      CLOUDY    15   8  73 SE12      29.95F WCI   2
6HR MIN TEMP:  10; 6HR MAX TEMP:  15; 6HR PCP: TRACE;

HURON          PTCLDY    18  12  77 SE14      29.91F WCI   4
6HR MIN TEMP:  13; 6HR MAX TEMP:  18;

SISSETON         N/A      8   4  83 S15       30.04F WCI  -9
ABERDEEN       PTCLDY    14   8  77 SE5       29.96F WCI   6
6HR MIN TEMP:  14; 6HR MAX TEMP:  18; 6HR PCP: TRACE;

MITCHELL       PTCLDY    22  15  75 S15       29.94F WCI   9
PIERRE         PTCLDY    20  16  84 CALM      29.84F
6HR MIN TEMP:  18; 6HR MAX TEMP:  26;

MOBRIDGE       CLEAR     13   9  84 E12       29.84F WCI  -1
RAPID CITY     MOCLDY    36  26  67 S3        29.84F
6HR MIN TEMP:  27; 6HR MAX TEMP:  43;

$$

  *****  SOME WEATHER IN NEARBY STATES *****

CITY           SKY/WX    TMP DP  RH WIND       PRES   REMARKS
GLASGOW MT     CLOUDY    23  21  92 E15       29.69F FOG     WCI  10
6HR MIN TEMP:  23; 6HR MAX TEMP:  26;

GREAT FALLS MT MOCLDY    45  34  65 SW13      29.65F
6HR MIN TEMP:  41; 6HR MAX TEMP:  50;

CHEYENNE WY    CLEAR     50  20  30 W29G39    30.03F
6HR MIN TEMP:  48; 6HR MAX TEMP:  51;

SCOTTSBLUFF NE CLEAR     32  26  78 E6        29.97F
6HR MIN TEMP:  30; 6HR MAX TEMP:  51;

OMAHA NE       CLEAR     25  18  74 SE17      30.14F WCI  12
6HR MIN TEMP:  22; 6HR MAX TEMP:  25;

DES MOINES IA  MOCLDY    14   5  67 SE10      30.27F WCI   1
6HR MIN TEMP:  13; 6HR MAX TEMP:  15; 6HR PCP: TRACE;

DAVENPORT IA   CLOUDY    13   4  67 SW5       30.39F WCI   5
6HR MIN TEMP:   5; 6HR MAX TEMP:  13;

CHICAGO IL     PTCLDY    18  11  74 CALM      30.36F
6HR MIN TEMP:  15; 6HR MAX TEMP:  20;

EAU CLAIRE WI  CLOUDY     9   0  67 S3        30.30F
6HR MIN TEMP:  -1; 6HR MAX TEMP:   9;

LA CROSSE WI   CLOUDY    14   4  64 S6        30.34S WCI   5
6HR MIN TEMP:   8; 6HR MAX TEMP:  14;

$$

  *****  SOME NATIONAL WEATHER *****

CITY           SKY/WX    TMP DP  RH WIND       PRES   REMARKS
LA GUARDIA NY  PTCLDY    34  25  69 NW12      30.06R
6HR MIN TEMP:  34; 6HR MAX TEMP:  37;

RALEIGH NC     CLEAR     35  22  58 NW6       30.25F
6HR MIN TEMP:  34; 6HR MAX TEMP:  42;

ATLANTA GA     CLEAR     34  22  61 N10G22    30.36F
6HR MIN TEMP:  34; 6HR MAX TEMP:  41;

NEW ORLEANS LA CLEAR     49  35  58 NE9       30.43F
6HR MIN TEMP:  49; 6HR MAX TEMP:  54;

OKLAHOMA CITY  PTCLDY    40  25  55 S15       30.23F
6HR MIN TEMP:  36; 6HR MAX TEMP:  44;

ALBUQUERQUE NM PTCLDY    43  20  39 E3        30.33F
6HR MIN TEMP:  38; 6HR MAX TEMP:  56;

SALT LAKE CITY MOCLDY    47  26  44 SE10      30.11F
6HR MIN TEMP:  45; 6HR MAX TEMP:  54;

LOS ANGELES CA CLEAR     61  52  72 E5        30.02S
6HR MIN TEMP:  60; 6HR MAX TEMP:  72;

BOISE ID       CLOUDY    43  41  93 S3        29.99F


USA.gov is the U.S. government's official web portal to all federal, state and local government web resources and services.